Hourly Data Report for October 17, 2013

All times are specified in Local Standard Time (LST). Add 1 hour to adjust for Daylight Saving Time where and when it is observed.

KAMLOOPS A
BRITISH COLUMBIA

50°42'09.000" N
120°26'55.000" W
345.30 m
1163781
71887
YKA

Download Data

Hourly Data (October 2013)
Hourly Data Report for October 17, 2013
Temp Definition
°C
Dew Point Temp Definition
°C
Rel Hum Definition
%
Wind Dir Definition
10's deg

Wind Spd Definition
km/h
Visibility Definition
km
Stn Press Definition
kPa
Hmdx Definition


Wind Chill Definition


Weather Definition


TIME
00:00 Legend Double Dagger 3.0 1.2 88 7 2 64.4 98.41     LegendNANA
01:00 Legend Double Dagger 1.7 -0.1 88 8 6 64.4 98.45     Clear
02:00 Legend Double Dagger 2.2 0.6 89 8 6 64.4 98.51     LegendNANA
03:00 Legend Double Dagger 1.8 0.5 91 5 4 64.4 98.57     LegendNANA
04:00 Legend Double Dagger 0.5 -1.1 89 30 1 64.4 98.60     Mainly Clear
05:00 Legend Double Dagger -0.1 -1.5 90 8 9 64.4 98.61   -3 LegendNANA
06:00 Legend Double Dagger 0.1 -1.5 89 10 5 64.4 98.66     LegendNANA
07:00 Legend Double Dagger -0.4 -1.7 91 6 8 64.4 98.75   -3 Mainly Clear
08:00 Legend Double Dagger 2.8 0.7 86 7 2 64.4 98.79     LegendNANA
09:00 Legend Double Dagger 5.2 2.4 82 11 13 64.4 98.82     LegendNANA
10:00 Legend Double Dagger 6.6 2.5 75 12 9 64.4 98.82     Mainly Clear
11:00 Legend Double Dagger 8.2 2.7 68 13 9 64.4 98.75     LegendNANA
12:00 Legend Double Dagger 10.2 2.8 60 11 7 64.4 98.69     LegendNANA
13:00 Legend Double Dagger 11.6 2.9 55 11 9 64.4 98.61     Clear
14:00 Legend Double Dagger 13.2 2.8 49 10 9 64.4 98.54     LegendNANA
15:00 Legend Double Dagger 13.4 2.4 47 11 14 64.4 98.48     LegendNANA
16:00 Legend Double Dagger 13.1 2.7 49 13 12 64.4 98.44     Clear
17:00 Legend Double Dagger 11.3 2.1 53 11 7 64.4 98.42     LegendNANA
18:00 Legend Double Dagger 9.5 2.8 63 11 12 64.4 98.44     LegendNANA
19:00 Legend Double Dagger 7.4 1.9 68 5 1 64.4 98.45     Clear
20:00 Legend Double Dagger 6.6 1.7 71 9 4 64.4 98.49     LegendNANA
21:00 Legend Double Dagger 4.9 1.0 76 9 10 64.4 98.52     LegendNANA
22:00 Legend Double Dagger 4.8 0.9 76 7 7 64.4 98.56     Clear
23:00 Legend Double Dagger 4.0 1.0 81 11 5 64.4 98.59     LegendNANA

Notes on Data Quality.

Legend

  • E = Estimated
  • M = Missing
  • NA = Not Available
  • ‡ = Partner data that is not subject to review by the National Climate Archives
Date modified: